User: anonymous   Login
Location: Mauna Kea VIS
(19.7591°N, 155.4561°W)
Time: 19:40:58
(UTC-10:00)
Language:

Cosmos 1624 Rocket - Orbit

View from above orbital plane
View from above orbital plane
View from above satellite
View from above satellite

Ground track
Ground track

The orbit data is extracted from the following two-line orbital elements,

1 15483U 85006B   14354.20231767  .00000142  00000-0  57786-4 0  3993
2 15483 074.0445 225.0571 0017861 068.7553 065.2077 14.35933660565920
Epoch (UTC): 20 December 2014 04:51:20
Eccentricity: 0.0017861
inclination: 74.0445°
perigee height: 759 km
apogee height: 785 km
right ascension of ascending node: 225.0571°
argument of perigee: 68.7553°
revolutions per day: 14.35933660
mean anomaly at epoch: 65.2077°
orbit number at epoch: 56592

The dashed part of the orbit path shows where the satellite is in the earth's shadow,  

DLR